WHITEHORSE, YK current weather conditions

sailwx.info

Wind from 270 at 6 knots

Air temperature 2.0° C
Visibility: greater than 13.0 NM
Dewpoint -0.0° C

Last reported at 2014-Oct-23 03:00 UTC.
Time now 2014-Oct-23 04:40 UTC

Location: N 60°43' W 135°04'.
View on Google Maps.

See reports from other nearby stations

  
Tides and Currents Weather Stations Pressure Air Temp Water Temp Dewpoint Dewpoint Depression Visibility Wind Speed Wind Dir Waves Ship Positions
date/time (UTC)wind fromknots sea level pressurealtimeterstation pressurevisibilityair tempwater tempwave heightnotes
2014-Oct-23 03:00 270 6 13.0 2.0
2014-Oct-23 02:00 240 5 34.8 3.0
2014-Oct-23 01:00 160 9 34.8 4.0
2014-Oct-23 00:00 180 7 34.8 5.0
2014-Oct-22 23:00 160 6 34.8 5.0
2014-Oct-22 22:00 160 9 34.8 5.0
2014-Oct-22 21:00 160 3 34.8 4.0
2014-Oct-22 20:00 26.1 3.0
2014-Oct-22 19:00 26.1 2.0
2014-Oct-22 18:00 26.1 2.0 Showers in the vicinity.
2014-Oct-22 17:00 26.1 1.0 Showers in the vicinity.
2014-Oct-22 16:00 26.1 1.0
2014-Oct-22 15:28 13.0 1.0
2014-Oct-22 15:00 280 3 8.7 1.0 Light snow.
2014-Oct-22 14:38 270 3 5.2-0.0 Light snow.
2014-Oct-22 14:13 130 2 2.2 1.0 Light snow.
2014-Oct-22 14:00 2.6 1.0 Light snow.
2014-Oct-22 13:44 2.6 1.0 Light snow.
2014-Oct-22 13:00 270 3 13.0 1.0 Light snow.
2014-Oct-22 12:00 8.7 2.0 Light rain showers.
2014-Oct-22 11:50 13.0 2.0 Light rain showers.
2014-Oct-22 11:00 270 3 13.0 1.0
2014-Oct-22 10:00 230 2 13.0 1.0
2014-Oct-22 09:00 13.0 1.0
2014-Oct-22 08:00 13.0 2.0
2014-Oct-22 07:00 260 5 13.0 1.0
2014-Oct-22 06:00 13.0 2.0
2014-Oct-22 05:00 13.0 2.0
2014-Oct-22 04:00 280 3 13.0 2.0
2014-Oct-22 03:00 280 3 13.0 2.0
2014-Oct-22 02:00 17.4 2.0 Showers in the vicinity.
2014-Oct-22 01:00 360 3 17.4 3.0
2014-Oct-22 00:00 340 5 17.4 4.0
2014-Oct-21 23:00 350 4 34.8 4.0
2014-Oct-21 22:00 34.8 4.0
2014-Oct-21 21:00 34.8 3.0
2014-Oct-21 20:00 34.8 1.0
2014-Oct-21 19:00 34.8-0.0
2014-Oct-21 18:00 34.8-1.0
2014-Oct-21 17:00 170 6 34.8-1.0
2014-Oct-21 16:00 34.8-1.0
2014-Oct-21 15:00 34.8-2.0
2014-Oct-21 14:00 13.0-1.0
2014-Oct-21 13:00 240 3 13.0-0.0
2014-Oct-21 12:00 240 5 13.0-0.0
2014-Oct-21 11:00 13.0-0.0
2014-Oct-21 10:00 210 7 13.0-0.0
2014-Oct-21 09:00 190 8 13.0 1.0
2014-Oct-21 08:00 220 5 13.0 1.0
2014-Oct-21 07:00 190 8 13.0 2.0
2014-Oct-21 06:00 200 6 13.0 2.0
2014-Oct-21 05:00 200 4 13.0 4.0
2014-Oct-21 04:00 160 15 13.0 5.0